Orbital Elements at Epoch 2459200.5 (2020-Dec-17.0) TDB
Reference: JPL 34 (heliocentric ecliptic J2000)
Element | Value | Uncertainty (1-sigma) | Units |
e | .09539002700490525 | 2.7948e-08 | |
a | 2.794649783743066 | 9.9931e-09 | au |
q | 2.528068065402562 | 7.7378e-08 | au |
i | 2.81369240751842 | 3.5313e-06 | deg |
node | 273.1634080565136 | 6.3404e-05 | deg |
peri | 49.70558052189894 | 6.671e-05 | deg |
M | 86.27605729494567 | 1.9638e-05 | deg |
tp | 2458791.543323054333 (2019-Nov-04.04332305) | 9.3106e-05 | TDB |
period | 1706.434071241049 4.67 | 9.1528e-06 2.506e-08 | d yr |
n | .2109662518272274 | 1.1316e-09 | deg/d |
Q | 3.06123150208357 | 1.0946e-08 | au |
|
| | Orbit Determination Parameters
Additional Information
|